Notices

What's New in latest Release from April 7th, 2021:

- Updated Glossary, including Speed of Maximum Gust, and Total Hourly Precipitation

- Updated national and regional climate services offices contacts and prices information

- Addition of station inventory lists for 1981-2010, 1971-2000, and 1961-1990 Normals.

If you haven't already, please take our survey and provide feedback about our website: https://eccc.sondage-survey.ca/f/LanguageSelection.aspx?s=442ca660-fcf1-47c0-95a9-59707d6fd709

Hourly Data Report for November 08, 2004

SHERBROOKE A
QUEBEC

45°26'00.000" N
71°41'00.000" W
241.40 m
7028124
71610
YSC

Download Data

Hourly Data (November 2004)
Hourly Data Report for November 8, 2004
TIME
LST
Temp Definition
°C
Dew Point Definition
°C
Rel Hum Definition
%
Precip. Amount Definition
mm

Wind Dir Definition
10's deg

Wind Spd Definition
km/h
Visibility Definition
km
Stn Press Definition
kPa
Hmdx Definition


Wind Chill Definition


Weather Definition


00:00 0.4 -2.8 79   29 6 15.0 98.01      
01:00 -0.5 -3.2 82   29 15 15.0 98.07   -5  
02:00 -1.0 -4.3 78   30 11 15.0 98.14   -5  
03:00 -1.0 -4.5 77   30 13 15.0 98.16   -5  
04:00 -1.1 -5.2 74   31 4 15.0 98.19   -2  
05:00 -1.2 -5.4 73   30 7 15.0 98.25   -4  
06:00 -1.3 -5.4 74   31 4 15.0 98.32   -3  
07:00 -1.7 -4.8 79   30 15 15.0 98.38   -7 Snow
08:00 -1.6 -4.5 81   27 9 24.1 98.49   -5 Mainly Clear
09:00 -0.8 -5.9 68   30 19 24.1 98.53   -6 Mainly Clear
10:00 -0.3 -5.6 67   29 22 24.1 98.58   -6 Mainly Clear
11:00 0.0 -6.3 63   29 20 24.1 98.60   -5 Mostly Cloudy
12:00 1.4 -5.8 59   29 20 24.1 98.58     Mostly Cloudy
13:00 0.0 -8.1 54   30 22 24.1 98.63   -6 Mostly Cloudy
14:00 0.4 -7.2 57   30 26 24.1 98.68     Mostly Cloudy
15:00 -0.4 -7.5 59   31 15 24.1 98.77   -5 Mostly Cloudy
16:00 -1.6 -6.9 67   27 9 24.1 98.83   -5 Mostly Cloudy
17:00 -1.8 -6.1 72   29 15 19.3 98.96   -7 Cloudy
18:00 -2.6 -7.6 68   31 11 15.0 99.08   -7  
19:00 -3.4 -9.1 65   28 15 15.0 99.14   -9  
20:00 -3.6 -9.1 66   25 11 15.0 99.18   -8  
21:00 -4.2 -9.0 69   30 13 15.0 99.25   -9  
22:00 -4.8 -9.3 71   28 9 15.0 99.31   -9  
23:00 -5.4 -9.5 73   29 13 15.0 99.31   -11  

Notes on Data Quality.

Legend

  • E = Estimated
  • M = Missing
  • NA = Not Available*
  • [empty] = Indicates an unobserved value
Date modified: